Location: Fennell Observatory
(35.2597°N, 89.5125°W)
Time: 23:07:17
(UTC-05:00)

Daily predictions for brighter satellites

Satellite Brightness Start Highest point End
(mag) Time Altitude Azimuth Time Altitude Azimuth Time Altitude Azimuth
NOSS 2-3 (E) 3.7 20:39:11 10° SSW 20:43:34 63° ESE 20:48:29 10° NE
Cosmos 2058 Rocket 3.4 20:41:50 10° NNW 20:46:15 71° W 20:50:35 10° S
Cosmos 1733 3.3 20:43:44 10° N 20:47:28 55° E 20:51:09 10° SSE
Cosmos 2263 Rocket 2.2 20:45:12 10° SSW 20:50:52 79° ESE 20:56:34 10° NNE
ATLAS 2AS CENTAUR R/B 3.9 20:47:31 10° SSE 20:53:31 26° ESE 20:59:48 10° NE
BREEZE-M R/B 3.2 20:50:15 10° NW 20:53:36 36° NNE 20:55:58 10° E
Cosmos 1603 3.8 20:49:14 10° NNW 20:54:59 87° ENE 21:00:43 10° SSE
Cosmos 2180 Rocket 4.5 20:50:42 10° S 20:56:55 85° E 21:03:05 10° N
Cosmos 1655 Rocket 4.0 20:53:14 10° N 20:59:31 80° E 21:05:44 10° S
Cosmos 1315 Rocket 4.3 20:56:48 10° SE 20:59:41 19° E 21:02:36 10° NE
Cosmos 1953 2.3 21:00:12 10° N 21:04:12 75° E 21:08:10 10° S
Cosmos 972 Rocket 4.3 20:59:37 10° SSW 21:04:30 68° WNW 21:09:25 10° N
YAOGAN 6 3.9 21:02:04 10° SSW 21:05:24 39° W 21:08:44 10° NNW
Cosmos 1707 2.7 21:02:00 10° S 21:05:51 70° E 21:09:41 10° NNE
SJ-11-01 4.3 21:01:47 10° SSE 21:06:32 89° W 21:11:18 10° NNW
Cosmos 1825 Rocket 4.4 21:03:31 10° SSE 21:07:27 32° E 21:11:25 10° NNE
OAO 3 Copernicus 4.3 21:04:43 10° W 21:09:49 89° S 21:14:53 10° E
Cosmos 1048 Rocket 4.5 21:08:15 10° S 21:13:08 40° E 21:18:05 10° NNE
Iridium 4 Rocket 4.2 21:09:25 10° SSE 21:14:52 43° E 21:20:00 10° NNE
Lacrosse 5 2.0 21:14:54 10° SSW 21:19:47 52° SE 21:24:42 10° NE
Hubble Space Telescope 2.3 21:17:07 10° WSW 21:20:20 22° SSW 21:22:22 16° SSE
Cosmos 2266 Rocket 4.1 21:14:34 10° N 21:20:54 61° E 21:26:44 12° SSE
SAR-Lupe-3 4.5 21:19:48 10° NNE 21:23:23 85° ESE 21:26:57 10° SSW
Cosmos 1238 Rocket 3.5 21:23:37 20° ESE 21:24:10 21° E 21:26:30 10° NE
CZ-4B DEB 4.5 21:24:13 18° SSE 21:26:39 63° ENE 21:30:05 10° N
Aureole 1 Rocket 2.2 21:24:38 10° S 21:27:33 56° ESE 21:30:53 10° NNE
USA 215 3.5 21:22:00 13° SSE 21:27:49 67° SW 21:34:21 10° NW
Cosmos 1400 Rocket 3.1 21:25:40 10° SSW 21:29:43 70° W 21:33:44 10° N
Cosmos 1452 Rocket 3.5 21:30:33 10° NNW 21:35:50 69° ENE 21:39:27 20° SSE
Spot 2 Rocket 3.9 21:31:43 10° S 21:36:41 61° WSW 21:41:41 10° NNW
Cosmos 1943 3.4 21:33:21 10° NNW 21:38:58 69° WSW 21:43:34 15° S
Cosmos 1420 Rocket 4.0 21:34:05 10° N 21:39:14 64° ENE 21:42:29 23° SSE
BREEZE-M DEB (TANK) 4.3 21:30:12 10° SW 21:44:08 70° NW 21:48:00 10° NE
Cosmos 1346 Rocket 4.0 21:42:13 10° NNE 21:45:39 27° ENE 21:46:37 24° E
H-2A R/B 2.2 21:43:05 22° SSE 21:46:26 64° ENE 21:51:43 10° N
ERS-2 3.9 21:45:18 10° SSW 21:48:29 28° W 21:51:40 10° NW
Cosmos 1607 4.1 21:47:48 10° NW 21:54:09 70° WSW 21:58:13 23° SSE
ARGOS 3.2 21:51:36 20° SSE 21:55:26 85° WSW 22:00:54 10° NNW
Cosmos 1844 4.1 21:54:48 24° SSE 21:57:47 43° ESE 22:03:10 10° NE
Meteor 1-24 Rocket 3.8 21:52:58 14° S 21:58:11 76° E 22:04:13 10° NNE
SL-8 R/B 3.6 21:53:29 10° SW 21:58:16 68° SE 22:03:04 10° ENE
Cosmos 1726 4.0 21:55:54 10° NNE 21:58:22 17° ENE 21:58:22 17° ENE
Cosmos 1269 Rocket 3.9 21:56:23 10° SSW 22:01:40 82° ESE 22:07:00 10° NNE
OAO 3 Rocket 3.1 21:57:16 10° WSW 22:02:13 81° S 22:05:27 21° E
DMSP B5D2-2 4.1 21:57:16 10° NNE 22:02:28 61° E 22:05:19 26° S
Meteor 2-5 Rocket 4.3 21:58:07 10° SSW 22:03:58 63° W 22:09:52 10° N
Cosmos 1844 Rocket 2.6 21:59:16 12° S 22:04:24 67° ESE 22:10:01 10° NNE
Cosmos-2242 3.3 22:00:22 10° N 22:04:40 53° E 22:05:52 40° SE
Resurs 01 Rocket 4.1 22:04:32 10° SW 22:07:24 17° W 22:10:18 10° NW
Cosmos 1437 2.8 22:06:09 10° N 22:09:11 57° ENE 22:09:11 57° ENE
MetOp-A 4.4 22:06:49 22° S 22:10:18 64° WSW 22:15:38 10° NNW
SL-08 RB Rocket 3.9 22:10:02 29° S 22:12:20 70° WSW 22:17:01 10° NNW
Cosmos 1932 4.4 22:06:14 10° NNW 22:12:28 90° SW 22:15:23 34° SSE
Cosmos 1953 Rocket 3.9 22:09:54 18° SSW 22:12:57 61° W 22:17:18 10° N
Cosmos 2084 4.3 22:15:04 10° N 22:18:30 30° NE 22:19:00 29° ENE
CZ-2C R/B 4.4 22:18:55 26° E 22:20:36 30° ENE 22:25:34 10° N
Cosmos 494 Rocket 3.9 22:18:57 34° S 22:21:13 69° ESE 22:26:27 10° NNE
USA 245 4.5 22:21:53 31° S 22:24:53 79° W 22:31:18 10° NNW
ATLAS 3B R/B 3.8 22:20:03 10° NNW 22:25:45 29° NE 22:28:55 20° E
Cosmos 1417 Rocket 4.4 22:22:24 29° S 22:25:50 79° E 22:32:10 10° N
Meteor 2-1 Rocket 4.4 22:21:22 10° N 22:27:15 63° E 22:29:07 42° SE
Helios 1A 2.9 22:26:52 60° ESE 22:27:22 68° ENE 22:31:33 10° N
Cosmos 1908 3.2 22:23:45 10° N 22:27:36 64° E 22:27:37 64° E
Terra 2.6 22:27:13 34° E 22:27:51 35° ENE 22:32:10 10° N
Cosmos 2251 Rocket 3.9 22:33:43 43° ESE 22:33:52 43° ESE 22:38:54 10° NNE
Spot 1 4.5 22:41:53 48° ENE 22:41:54 48° ENE 22:46:10 10° N
ATLAS 2AS CENTAUR R/B 3.4 22:36:15 10° SW 22:43:54 64° NW 22:51:59 10° NNE
Cosmos 1745 Rocket 4.0 22:38:57 10° N 22:45:14 64° E 22:46:47 49° SE
ERS-1 Rocket 3.9 22:46:49 30° SW 22:48:37 41° W 22:53:22 10° NNW
Helios 1B rocket 2.4 22:44:50 10° N 22:48:56 76° WNW 22:49:09 73° WSW
SPOT 5 3.2 22:50:02 50° SSW 22:51:09 64° W 22:56:17 10° NNW
Cosmos 2221 3.8 22:50:01 10° NNE 22:53:10 30° ENE 22:53:10 30° ENE
OAO 3 Copernicus 4.3 22:49:19 10° W 22:54:03 62° SSW 22:54:03 62° SSW
Cosmos 1340 3.2 22:50:41 10° N 22:53:42 53° NNE 22:53:42 53° NNE
Cosmos 1626 4.3 22:56:30 17° NE 22:56:30 17° NE 22:57:42 10° NNE
CZ-2C R/B 3.0 22:49:34 10° NNE 22:54:35 46° E 22:54:35 46° E
SL-08 R/B 4.4 22:48:39 10° N 22:54:49 84° W 22:56:36 49° S
Meteor 1-21 Rocket 4.2 22:56:13 56° S 22:57:33 83° E 23:03:26 10° N
Meteor 1-29 4.2 22:55:58 10° N 22:58:17 40° N 22:58:17 40° N
Cosmos 1674 4.4 23:00:48 25° W 23:01:37 27° WNW 23:04:55 10° NNW
Cosmos 921 Rocket 3.3 22:57:23 10° NNW 23:01:49 62° WSW 23:01:51 62° WSW
Lacrosse 5 4.1 22:58:49 10° W 23:02:59 25° NW 23:07:09 10° NNE
Cosmos 1300 3.9 22:59:38 10° N 23:02:11 35° NNE 23:02:11 35° NNE
S3M 4.3 23:04:32 34° SSW 23:07:17 62° W 23:13:37 10° N
CARTOSAT-1 4.0 23:13:18 57° WNW 23:13:18 57° WNW 23:17:15 10° NNW
YAOGAN 11 4.3 23:16:59 72° N 23:16:59 72° N 23:21:07 10° NNW
SL-14 R/B 4.3 23:19:43 44° NNW 23:19:43 44° NNW 23:22:36 10° N
Cosmos 1709 Rocket 4.1 23:12:52 10° N 23:18:59 57° E 23:19:27 56° E
Meteor 2-13 Rocket 4.4 23:13:16 10° N 23:19:20 76° W 23:20:20 62° SSW
Cosmos 2278 Rocket 2.1 23:20:26 75° SSW 23:20:57 88° WNW 23:26:40 10° NNE
NOSS 3-4 (A) 3.3 23:20:16 68° S 23:21:04 81° ESE 23:27:25 10° NNE
NOSS 3-4 (C) 3.3 23:20:25 69° S 23:21:10 80° ESE 23:27:30 10° NNE
Aureole 3 Rocket 4.5 23:23:27 54° SSE 23:25:15 69° E 23:31:45 10° NNE
H-2A R/B 4.5 23:23:53 10° WSW 23:26:15 13° W 23:28:40 10° WNW
ATLAS 3B CENTAUR R/B 4.1 23:14:15 10° SW 23:24:05 33° SSW 23:24:05 33° SSW
COSMOS 2406 3.3 23:24:44 10° NNW 23:30:26 65° WSW 23:30:39 64° WSW
Cosmos 1461 3.7 23:34:20 55° N 23:34:20 55° N 23:38:11 10° NNE
Cosmos 1726 4.3 23:30:41 10° NW 23:32:56 21° WNW 23:32:56 21° WNW
CENTAUR R/B 4.3 23:29:54 10° NNW 23:36:59 33° NE 23:41:25 21° E
Cosmos 2315 Rocket 3.9 23:41:44 71° SW 23:42:22 80° W 23:48:44 10° N
ADEOS Rocket 3.9 23:38:22 10° NNE 23:43:06 36° E 23:43:06 36° E
COBE Rocket 4.1 23:40:31 10° N 23:45:03 71° N 23:45:03 71° N
USA 234 4.1 23:42:15 10° ENE 23:46:17 33° E 23:46:17 33° E
H-2A R/B 4.4 23:53:56 15° NE 23:53:56 15° NE 23:55:22 10° NNE
